,,,PA_Meas_PMT16A,,PR_Meas_QMR101_102,,RH_Meas_QMH101,,SR_Meas_QMS101,,TA_Meas_QMH101,,GenWind,,GenWind,
date,time,status,PA,status,PR,status,RH,status,SR,status,TA,status,DirAvg,status,SpdAvg,
2009-04-16, 00:00:04,VALID,1003.69,VALID,0,VALID,93.9344,VALID,0,VALID,23.8769,VALID,5,VALID,0.921875,
2009-04-16, 00:01:04,VALID,1003.65,VALID,0,VALID,93.881,VALID,0,VALID,23.8575,VALID,346,VALID,0.448828,
2009-04-16, 00:02:04,VALID,1003.66,VALID,0,VALID,93.8886,VALID,0,VALID,23.8787,VALID,358,VALID,0.635547,
2009-04-16, 00:03:04,VALID,1003.63,VALID,0,VALID,93.8581,VALID,0.100563,VALID,23.8769,VALID,2,VALID,0.305078,
2009-04-16, 00:04:04,VALID,1003.61,VALID,0,VALID,93.8734,VALID,0,VALID,23.8982,VALID,331,VALID,0.497656,
2009-04-16, 00:05:04,VALID,1003.58,VALID,0,VALID,93.8429,VALID,0.100563,VALID,23.8575,VALID,268,VALID,0.305859,
2009-04-16, 00:06:04,VALID,1003.58,VALID,0,VALID,93.8581,VALID,0,VALID,23.8982,VALID,303,VALID,0.274219,
2009-04-16, 00:07:04,VALID,1003.56,VALID,0,VALID,93.82,VALID,0,VALID,23.8982,VALID,325,VALID,0.452734,
2009-04-16, 00:08:04,VALID,1003.53,VALID,0,VALID,93.8047,VALID,0,VALID,23.8982,VALID,333,VALID,0.193359,
2009-04-16, 00:09:04,VALID,1003.5,VALID,0,VALID,93.7589,VALID,0.100563,VALID,23.8575,VALID,12,VALID,0.919141,
2009-04-16, 00:10:04,VALID,1003.5,VALID,0,VALID,93.7055,VALID,0.100563,VALID,23.8769,VALID,350,VALID,0.329297,
2009-04-16, 00:11:04,VALID,1003.51,VALID,0,VALID,93.675,VALID,0,VALID,23.8769,VALID,297,VALID,0.504297,
2009-04-16, 00:12:04,VALID,1003.49,VALID,0,VALID,93.6369,VALID,0,VALID,23.8787,VALID,340,VALID,0.665625,
2009-04-16, 00:13:04,VALID,1003.54,VALID,0,VALID,93.5682,VALID,0,VALID,23.8787,VALID,316,VALID,0.512109,
2009-04-16, 00:14:04,VALID,1003.53,VALID,0,VALID,93.5072,VALID,0,VALID,23.8787,VALID,9,VALID,0.719922,
2009-04-16, 00:15:04,VALID,1003.53,VALID,0,VALID,93.4385,VALID,0.100563,VALID,23.8593,VALID,346,VALID,0.904688,
2009-04-16, 00:16:04,VALID,1003.56,VALID,0,VALID,93.3317,VALID,0.100563,VALID,23.8593,VALID,349,VALID,1.56367,
2009-04-16, 00:17:04,VALID,1003.55,VALID,0,VALID,93.2097,VALID,0,VALID,23.8787,VALID,357,VALID,1.10938,
2009-04-16, 00:18:04,VALID,1003.55,VALID,0,VALID,93.1029,VALID,0,VALID,23.8787,VALID,345,VALID,0.928125,
2009-04-16, 00:19:04,VALID,1003.54,VALID,0,VALID,93.08,VALID,0,VALID,23.8575,VALID,355,VALID,0.317578,
2009-04-16, 00:20:04,VALID,1003.54,VALID,0,VALID,93.0571,VALID,0,VALID,23.8575,VALID,348,VALID,0.901953,
2009-04-16, 00:21:04,VALID,1003.56,VALID,0,VALID,93.0418,VALID,0.100563,VALID,23.8787,VALID,305,VALID,0.604297,
2009-04-16, 00:22:04,VALID,1003.54,VALID,0,VALID,93.0647,VALID,0.100563,VALID,23.838,VALID,351,VALID,1.19883,
2009-04-16, 00:23:04,VALID,1003.53,VALID,0,VALID,93.08,VALID,0.100563,VALID,23.8787,VALID,340,VALID,1.10156,
2009-04-16, 00:24:04,VALID,1003.52,VALID,0,VALID,93.1105,VALID,0,VALID,23.8593,VALID,347,VALID,1.24492,
2009-04-16, 00:25:04,VALID,1003.54,VALID,0,VALID,93.1486,VALID,0,VALID,23.8593,VALID,343,VALID,0.651172,
2009-04-16, 00:26:04,VALID,1003.52,VALID,0,VALID,93.0647,VALID,0,VALID,23.838,VALID,359,VALID,1.07344,
2009-04-16, 00:27:04,VALID,1003.49,VALID,0,VALID,93.0571,VALID,0,VALID,23.8593,VALID,336,VALID,0.785547,
2009-04-16, 00:28:04,VALID,1003.47,VALID,0,VALID,93.0113,VALID,0,VALID,23.838,VALID,355,VALID,1.1875,
2009-04-16, 00:29:04,VALID,1003.47,VALID,0,VALID,92.9808,VALID,0,VALID,23.8787,VALID,345,VALID,0.708203,
2009-04-16, 00:30:04,VALID,1003.44,VALID,0,VALID,92.9884,VALID,0,VALID,23.8575,VALID,337,VALID,0.809766,
2009-04-16, 00:31:04,VALID,1003.43,VALID,0,VALID,92.9426,VALID,0,VALID,23.8575,VALID,336,VALID,0.751953,
2009-04-16, 00:32:04,VALID,1003.42,VALID,0,VALID,92.9198,VALID,0,VALID,23.8769,VALID,358,VALID,1.13437,
2009-04-16, 00:33:04,VALID,1003.38,VALID,0,VALID,92.8892,VALID,0,VALID,23.8982,VALID,354,VALID,0.691797,
2009-04-16, 00:34:04,VALID,1003.37,VALID,0,VALID,92.9503,VALID,0,VALID,23.9177,VALID,326,VALID,0.435547,
2009-04-16, 00:35:04,VALID,1003.36,VALID,0,VALID,92.935,VALID,0,VALID,23.9389,VALID,347,VALID,0.745703,
2009-04-16, 00:36:04,VALID,1003.34,VALID,0,VALID,92.8969,VALID,0,VALID,23.9177,VALID,350,VALID,1.34727,
2009-04-16, 00:37:04,VALID,1003.32,VALID,0,VALID,92.9121,VALID,0,VALID,23.9159,VALID,325,VALID,0.664063,
2009-04-16, 00:38:04,VALID,1003.32,VALID,0,VALID,92.9121,VALID,0,VALID,23.9371,VALID,360,VALID,0.920313,
2009-04-16, 00:39:04,VALID,1003.31,VALID,0,VALID,92.935,VALID,0,VALID,23.9371,VALID,16,VALID,0.564062,
2009-04-16, 00:40:04,VALID,1003.3,VALID,0,VALID,92.9808,VALID,0,VALID,23.9177,VALID,314,VALID,0.264062,
2009-04-16, 00:41:04,VALID,1003.29,VALID,0,VALID,93.0037,VALID,0,VALID,23.9371,VALID,348,VALID,0.874219,
2009-04-16, 00:42:04,VALID,1003.25,VALID,0,VALID,92.9274,VALID,0,VALID,23.9371,VALID,348,VALID,1.43242,
2009-04-16, 00:43:04,VALID,1003.24,VALID,0,VALID,92.935,VALID,0,VALID,23.9566,VALID,337,VALID,0.408203,
2009-04-16, 00:44:04,VALID,1003.22,VALID,0,VALID,92.9274,VALID,0,VALID,23.9159,VALID,6,VALID,0.481641,
2009-04-16, 00:45:04,VALID,1003.23,VALID,0,VALID,92.935,VALID,0,VALID,23.9566,VALID,354,VALID,0.274219,
2009-04-16, 00:46:04,VALID,1003.2,VALID,0,VALID,92.8969,VALID,0,VALID,23.9159,VALID,352,VALID,0.732422,
2009-04-16, 00:47:04,VALID,1003.19,VALID,0,VALID,92.9274,VALID,0.100563,VALID,23.9159,VALID,328,VALID,1.26836,
2009-04-16, 00:48:04,VALID,1003.2,VALID,0,VALID,92.9274,VALID,0,VALID,23.9159,VALID,360,VALID,0.764063,
2009-04-16, 00:49:04,VALID,1003.18,VALID,0,VALID,92.935,VALID,0,VALID,23.8964,VALID,341,VALID,1.23203,
2009-04-16, 00:50:04,VALID,1003.16,VALID,0,VALID,92.8969,VALID,0,VALID,23.9177,VALID,346,VALID,0.835938,
2009-04-16, 00:51:04,VALID,1003.18,VALID,0,VALID,92.9121,VALID,0,VALID,23.8769,VALID,352,VALID,0.518359,
2009-04-16, 00:52:04,VALID,1003.13,VALID,0,VALID,92.9121,VALID,0.100563,VALID,23.8964,VALID,336,VALID,0.824609,
2009-04-16, 00:53:04,VALID,1003.13,VALID,0,VALID,92.935,VALID,0,VALID,23.9177,VALID,354,VALID,1.11367,
2009-04-16, 00:54:04,VALID,1003.11,VALID,0,VALID,92.874,VALID,0,VALID,23.8769,VALID,338,VALID,0.996875,
2009-04-16, 00:55:04,VALID,1003.08,VALID,0,VALID,92.874,VALID,0,VALID,23.8964,VALID,330,VALID,0.719141,
2009-04-16, 00:56:04,VALID,1003.09,VALID,0,VALID,92.8587,VALID,0,VALID,23.8787,VALID,357,VALID,1.07539,
2009-04-16, 00:57:04,VALID,1003.04,VALID,0,VALID,92.8435,VALID,0,VALID,23.9195,VALID,342,VALID,0.800391,
2009-04-16, 00:58:04,VALID,1003.05,VALID,0,VALID,92.8206,VALID,0,VALID,23.9,VALID,347,VALID,1.04219,
2009-04-16, 00:59:04,VALID,1003.01,VALID,0,VALID,92.7977,VALID,0,VALID,23.8787,VALID,327,VALID,0.897266,
2009-04-16, 01:00:04,VALID,1003.03,VALID,0,VALID,92.8053,VALID,0,VALID,23.8787,VALID,333,VALID,1.06875,
2009-04-16, 01:01:04,VALID,1002.98,VALID,0,VALID,92.7748,VALID,0,VALID,23.9195,VALID,351,VALID,1.47539,
2009-04-16, 01:02:04,VALID,1002.97,VALID,0,VALID,92.729,VALID,0,VALID,23.9,VALID,347,VALID,1.93164,
2009-04-16, 01:03:04,VALID,1002.98,VALID,0,VALID,92.668,VALID,0,VALID,23.9389,VALID,346,VALID,0.708203,
2009-04-16, 01:04:04,VALID,1003,VALID,0,VALID,92.607,VALID,0,VALID,23.9389,VALID,349,VALID,0.858594,
2009-04-16, 01:05:04,VALID,1002.96,VALID,0,VALID,92.5765,VALID,0,VALID,23.9389,VALID,344,VALID,1.19062,
2009-04-16, 01:06:04,VALID,1002.95,VALID,0,VALID,92.5688,VALID,0,VALID,23.9177,VALID,344,VALID,0.832031,
2009-04-16, 01:07:04,VALID,1002.95,VALID,0,VALID,92.5917,VALID,0,VALID,23.8982,VALID,329,VALID,0.575781,
2009-04-16, 01:08:04,VALID,1002.93,VALID,0,VALID,92.6146,VALID,0,VALID,23.8982,VALID,314,VALID,0.296094,
2009-04-16, 01:09:04,VALID,1002.95,VALID,0,VALID,92.607,VALID,0,VALID,23.8787,VALID,294,VALID,0.5625,
2009-04-16, 01:10:04,VALID,1002.93,VALID,0,VALID,92.607,VALID,0,VALID,23.9195,VALID,276,VALID,0.881641,
2009-04-16, 01:11:04,VALID,1002.91,VALID,0,VALID,92.607,VALID,0,VALID,23.8964,VALID,304,VALID,0.0429688,
2009-04-16, 01:12:04,VALID,1002.92,VALID,0,VALID,92.607,VALID,0,VALID,23.8964,VALID,329,VALID,0.232812,
2009-04-16, 01:13:04,VALID,1002.91,VALID,0,VALID,92.6451,VALID,0,VALID,23.8769,VALID,329,VALID,0.0328125,
2009-04-16, 01:14:04,VALID,1002.89,VALID,0,VALID,92.6604,VALID,0,VALID,23.8769,VALID,307,VALID,0.282031,
2009-04-16, 01:15:04,VALID,1002.88,VALID,0,VALID,92.6604,VALID,0,VALID,23.8769,VALID,336,VALID,0.686328,
2009-04-16, 01:16:04,VALID,1002.88,VALID,0,VALID,92.668,VALID,0,VALID,23.8982,VALID,4,VALID,0.326172,
2009-04-16, 01:17:04,VALID,1002.82,VALID,0,VALID,92.668,VALID,0.100563,VALID,23.8575,VALID,342,VALID,0.690625,
2009-04-16, 01:18:04,VALID,1002.8,VALID,0,VALID,92.6375,VALID,0,VALID,23.838,VALID,348,VALID,0.603125,
2009-04-16, 01:19:04,VALID,1002.76,VALID,0,VALID,92.6299,VALID,0.100563,VALID,23.838,VALID,354,VALID,1.01875,
2009-04-16, 01:20:04,VALID,1002.74,VALID,0,VALID,92.6146,VALID,0.100563,VALID,23.8575,VALID,316,VALID,0.625,
2009-04-16, 01:21:04,VALID,1002.72,VALID,0,VALID,92.5765,VALID,0,VALID,23.838,VALID,311,VALID,0.392188,
2009-04-16, 01:22:04,VALID,1002.7,VALID,0,VALID,92.546,VALID,0.100563,VALID,23.8167,VALID,354,VALID,1.29688,
2009-04-16, 01:23:04,VALID,1002.68,VALID,0,VALID,92.5536,VALID,0.100563,VALID,23.8575,VALID,348,VALID,0.501562,
2009-04-16, 01:24:04,VALID,1002.7,VALID,0,VALID,92.5688,VALID,0,VALID,23.8575,VALID,281,VALID,0.0398437,
2009-04-16, 01:25:04,VALID,1002.68,VALID,0,VALID,92.5231,VALID,0.100563,VALID,23.838,VALID,356,VALID,0.908203,
2009-04-16, 01:26:04,VALID,1002.7,VALID,0,VALID,92.4925,VALID,0,VALID,23.8593,VALID,348,VALID,0.564453,
2009-04-16, 01:27:04,VALID,1002.69,VALID,0,VALID,92.4849,VALID,0,VALID,23.8787,VALID,10,VALID,0.40625,
2009-04-16, 01:28:04,VALID,1002.7,VALID,0,VALID,92.4468,VALID,0,VALID,23.8787,VALID,9,VALID,0.203516,
2009-04-16, 01:29:04,VALID,1002.71,VALID,0,VALID,92.4239,VALID,0,VALID,23.8787,VALID,336,VALID,0.678906,
2009-04-16, 01:30:04,VALID,1002.7,VALID,0,VALID,92.3705,VALID,0,VALID,23.8787,VALID,346,VALID,0.446875,
2009-04-16, 01:31:04,VALID,1002.73,VALID,0,VALID,92.3629,VALID,0,VALID,23.8787,VALID,335,VALID,0.711328,
2009-04-16, 01:32:04,VALID,1002.73,VALID,0,VALID,92.3552,VALID,0,VALID,23.8593,VALID,345,VALID,0.799219,
2009-04-16, 01:33:04,VALID,1002.75,VALID,0,VALID,92.34,VALID,0,VALID,23.8593,VALID,357,VALID,0.962891,
2009-04-16, 01:34:04,VALID,1002.73,VALID,0,VALID,92.2942,VALID,0,VALID,23.9195,VALID,5,VALID,0.787891,
2009-04-16, 01:35:04,VALID,1002.73,VALID,0,VALID,92.2179,VALID,0,VALID,23.8787,VALID,360,VALID,1.22734,
2009-04-16, 01:36:04,VALID,1002.72,VALID,0,VALID,92.0958,VALID,0,VALID,23.8982,VALID,339,VALID,0.850781,
2009-04-16, 01:37:04,VALID,1002.73,VALID,0,VALID,91.9967,VALID,0,VALID,23.9371,VALID,339,VALID,0.932422,
2009-04-16, 01:38:04,VALID,1002.75,VALID,0,VALID,91.9509,VALID,0,VALID,23.9177,VALID,322,VALID,0.387891,
2009-04-16, 01:39:04,VALID,1002.75,VALID,0,VALID,91.928,VALID,0,VALID,23.9177,VALID,357,VALID,0.760156,
2009-04-16, 01:40:04,VALID,1002.74,VALID,0,VALID,91.928,VALID,0,VALID,23.9177,VALID,1,VALID,0.605859,
2009-04-16, 01:41:04,VALID,1002.73,VALID,0,VALID,91.928,VALID,0,VALID,23.9177,VALID,352,VALID,0.574219,
2009-04-16, 01:42:04,VALID,1002.74,VALID,0,VALID,91.9814,VALID,0.100563,VALID,23.9159,VALID,345,VALID,0.246484,
2009-04-16, 01:43:04,VALID,1002.72,VALID,0,VALID,92.0119,VALID,0.100563,VALID,23.8982,VALID,353,VALID,0.553906,
2009-04-16, 01:44:04,VALID,1002.73,VALID,0,VALID,92.073,VALID,0,VALID,23.8982,VALID,6,VALID,0.218359,
2009-04-16, 01:45:04,VALID,1002.72,VALID,0,VALID,92.1492,VALID,0.100563,VALID,23.8575,VALID,310,VALID,0.6,
2009-04-16, 01:46:04,VALID,1002.76,VALID,0,VALID,92.1798,VALID,0,VALID,23.8787,VALID,288,VALID,0.905859,
2009-04-16, 01:47:04,VALID,1002.74,VALID,0,VALID,92.2179,VALID,0,VALID,23.8575,VALID,291,VALID,0.0359375,
2009-04-16, 01:48:04,VALID,1002.76,VALID,0,VALID,92.2255,VALID,0.100563,VALID,23.8575,VALID,349,VALID,1.08672,
2009-04-16, 01:49:04,VALID,1002.75,VALID,0,VALID,92.2484,VALID,0.100563,VALID,23.8769,VALID,315,VALID,0.446484,
2009-04-16, 01:50:04,VALID,1002.76,VALID,0,VALID,92.2637,VALID,0.100563,VALID,23.8769,VALID,323,VALID,0.0707031,
2009-04-16, 01:51:04,VALID,1002.76,VALID,0,VALID,92.2484,VALID,0,VALID,23.8769,VALID,338,VALID,1.24453,
2009-04-16, 01:52:04,VALID,1002.76,VALID,0,VALID,92.2713,VALID,0,VALID,23.8575,VALID,288,VALID,0.790625,
2009-04-16, 01:53:04,VALID,1002.77,VALID,0,VALID,92.2866,VALID,0,VALID,23.8787,VALID,283,VALID,0.305469,
2009-04-16, 01:54:04,VALID,1002.76,VALID,0,VALID,92.3247,VALID,0,VALID,23.8575,VALID,240,VALID,0.200781,
2009-04-16, 01:55:04,VALID,1002.78,VALID,0,VALID,92.3629,VALID,0,VALID,23.8593,VALID,280,VALID,0.287891,
2009-04-16, 01:56:04,VALID,1002.79,VALID,0,VALID,92.401,VALID,0.100563,VALID,23.838,VALID,290,VALID,1.38555,
2009-04-16, 01:57:04,VALID,1002.83,VALID,0,VALID,92.401,VALID,0.100563,VALID,23.838,VALID,276,VALID,0.9,
2009-04-16, 01:58:04,VALID,1002.82,VALID,0,VALID,92.3781,VALID,0.100563,VALID,23.8787,VALID,285,VALID,0.638672,
2009-04-16, 01:59:04,VALID,1002.81,VALID,0,VALID,92.34,VALID,0,VALID,23.8575,VALID,289,VALID,0.189844,
2009-04-16, 02:00:04,VALID,1002.83,VALID,0,VALID,92.3323,VALID,0,VALID,23.8575,VALID,280,VALID,0.29375,
2009-04-16, 02:01:04,VALID,1002.8,VALID,0,VALID,92.3476,VALID,0,VALID,23.8593,VALID,286,VALID,0.533984,
2009-04-16, 02:02:04,VALID,1002.8,VALID,0,VALID,92.3781,VALID,0,VALID,23.838,VALID,335,VALID,0.263672,
2009-04-16, 02:03:04,VALID,1002.75,VALID,0,VALID,92.4391,VALID,0,VALID,23.8185,VALID,338,VALID,0.237891,
2009-04-16, 02:04:04,VALID,1002.77,VALID,0,VALID,92.462,VALID,0,VALID,23.7991,VALID,349,VALID,0.532812,
2009-04-16, 02:05:04,VALID,1002.75,VALID,0,VALID,92.5231,VALID,0,VALID,23.7991,VALID,1,VALID,0.467969,
2009-04-16, 02:06:04,VALID,1002.72,VALID,0,VALID,92.5765,VALID,0,VALID,23.8009,VALID,360,VALID,0.0871094,
2009-04-16, 02:07:04,VALID,1002.72,VALID,0,VALID,92.6451,VALID,0,VALID,23.7796,VALID,345,VALID,0.226563,
2009-04-16, 02:08:04,VALID,1002.72,VALID,0,VALID,92.7062,VALID,0,VALID,23.7814,VALID,304,VALID,0.528125,
2009-04-16, 02:09:04,VALID,1002.74,VALID,0,VALID,92.7443,VALID,0,VALID,23.7407,VALID,296,VALID,0.764844,
2009-04-16, 02:10:04,VALID,1002.73,VALID,0,VALID,92.813,VALID,0,VALID,23.7407,VALID,315,VALID,1.01523,
2009-04-16, 02:11:04,VALID,1002.75,VALID,0,VALID,92.8282,VALID,0,VALID,23.7619,VALID,300,VALID,0.2375,
2009-04-16, 02:12:04,VALID,1002.77,VALID,0,VALID,92.8969,VALID,0.100563,VALID,23.7619,VALID,307,VALID,0.203906,
2009-04-16, 02:13:04,VALID,1002.78,VALID,0,VALID,92.9274,VALID,0.100563,VALID,23.7212,VALID,295,VALID,0.652734,
2009-04-16, 02:14:04,VALID,1002.78,VALID,0,VALID,92.9961,VALID,0.100563,VALID,23.7,VALID,296,VALID,0.417969,
2009-04-16, 02:15:04,VALID,1002.78,VALID,0,VALID,93.0113,VALID,0,VALID,23.7017,VALID,282,VALID,0.685156,
2009-04-16, 02:16:04,VALID,1002.78,VALID,0,VALID,93.0418,VALID,0,VALID,23.7017,VALID,282,VALID,0.0742188,
2009-04-16, 02:17:04,VALID,1002.78,VALID,0,VALID,93.1029,VALID,0.100563,VALID,23.7017,VALID,276,VALID,0.164063,
2009-04-16, 02:18:04,VALID,1002.8,VALID,0,VALID,93.1029,VALID,0,VALID,23.7017,VALID,275,VALID,0.00273437,
2009-04-16, 02:19:04,VALID,1002.76,VALID,0,VALID,93.1563,VALID,0,VALID,23.7017,VALID,275,VALID,0.132422,
2009-04-16, 02:20:04,VALID,1002.74,VALID,0,VALID,93.1639,VALID,0,VALID,23.7035,VALID,275,VALID,0.00429688,
2009-04-16, 02:21:04,VALID,1002.74,VALID,0,VALID,93.1944,VALID,0,VALID,23.6823,VALID,275,VALID,0.0375,
2009-04-16, 02:22:04,VALID,1002.75,VALID,0,VALID,93.2173,VALID,0,VALID,23.6823,VALID,294,VALID,0.151953,
2009-04-16, 02:23:04,VALID,1002.75,VALID,0,VALID,93.2707,VALID,0.100563,VALID,23.6823,VALID,270,VALID,0.00195313,
2009-04-16, 02:24:04,VALID,1002.76,VALID,0,VALID,93.3241,VALID,0,VALID,23.7035,VALID,270,VALID,0.00351562,
2009-04-16, 02:25:04,VALID,1002.77,VALID,0,VALID,93.3241,VALID,0,VALID,23.6628,VALID,270,VALID,0.00351562,
2009-04-16, 02:26:04,VALID,1002.79,VALID,0,VALID,93.3165,VALID,0.100563,VALID,23.6628,VALID,270,VALID,0,
2009-04-16, 02:27:04,VALID,1002.78,VALID,0,VALID,93.3851,VALID,0.100563,VALID,23.6628,VALID,270,VALID,0.0195313,
2009-04-16, 02:28:04,VALID,1002.8,VALID,0,VALID,93.4233,VALID,0,VALID,23.6434,VALID,270,VALID,0.200391,
2009-04-16, 02:29:04,VALID,1002.8,VALID,0,VALID,93.4233,VALID,0.100563,VALID,23.6646,VALID,270,VALID,0.00585938,
2009-04-16, 02:30:04,VALID,1002.84,VALID,0,VALID,93.469,VALID,0.100563,VALID,23.6434,VALID,280,VALID,0.423438,
2009-04-16, 02:31:04,VALID,1002.86,VALID,0,VALID,93.4843,VALID,0,VALID,23.6434,VALID,280,VALID,0.151172,
2009-04-16, 02:32:04,VALID,1002.85,VALID,0,VALID,93.4919,VALID,0.100563,VALID,23.6434,VALID,293,VALID,0.464844,
2009-04-16, 02:33:04,VALID,1002.85,VALID,0,VALID,93.553,VALID,0.100563,VALID,23.6434,VALID,354,VALID,0.619141,
2009-04-16, 02:34:04,VALID,1002.85,VALID,0,VALID,93.5758,VALID,0.100563,VALID,23.6239,VALID,358,VALID,0.598437,
2009-04-16, 02:35:04,VALID,1002.82,VALID,0,VALID,93.5911,VALID,0,VALID,23.6044,VALID,358,VALID,0.371094,
2009-04-16, 02:36:04,VALID,1002.82,VALID,0,VALID,93.6521,VALID,0,VALID,23.5637,VALID,358,VALID,0.233984,
2009-04-16, 02:37:04,VALID,1002.83,VALID,0,VALID,93.675,VALID,0.100563,VALID,23.5655,VALID,358,VALID,0.208203,
2009-04-16, 02:38:04,VALID,1002.8,VALID,0,VALID,93.7132,VALID,0.100563,VALID,23.5655,VALID,358,VALID,0.230469,
2009-04-16, 02:39:04,VALID,1002.82,VALID,0,VALID,93.7742,VALID,0,VALID,23.5266,VALID,358,VALID,0.217969,
2009-04-16, 02:40:04,VALID,1002.83,VALID,0,VALID,93.8123,VALID,0,VALID,23.5478,VALID,358,VALID,0.31875,
2009-04-16, 02:41:04,VALID,1002.82,VALID,0,VALID,93.82,VALID,0,VALID,23.5266,VALID,358,VALID,0.464063,
2009-04-16, 02:42:04,VALID,1002.81,VALID,0,VALID,93.8963,VALID,0.100563,VALID,23.5266,VALID,358,VALID,0.603516,
2009-04-16, 02:43:04,VALID,1002.82,VALID,0,VALID,93.9649,VALID,0,VALID,23.5266,VALID,358,VALID,0.811719,
2009-04-16, 02:44:04,VALID,1002.81,VALID,0,VALID,93.9725,VALID,0.100563,VALID,23.5284,VALID,12,VALID,0.855859,
2009-04-16, 02:45:04,VALID,1002.81,VALID,0,VALID,94.0107,VALID,0,VALID,23.5266,VALID,11,VALID,0.860937,
2009-04-16, 02:46:04,VALID,1002.79,VALID,0,VALID,94.0565,VALID,0.100563,VALID,23.5071,VALID,10,VALID,0.628906,
2009-04-16, 02:47:04,VALID,1002.81,VALID,0,VALID,94.0641,VALID,0.100563,VALID,23.5089,VALID,9,VALID,0.556641,
2009-04-16, 02:48:04,VALID,1002.77,VALID,0,VALID,94.087,VALID,0,VALID,23.4682,VALID,352,VALID,0.657031,
2009-04-16, 02:49:04,VALID,1002.78,VALID,0,VALID,94.1022,VALID,0.100563,VALID,23.4894,VALID,350,VALID,0.701953,
2009-04-16, 02:50:04,VALID,1002.77,VALID,0,VALID,94.1251,VALID,0,VALID,23.4487,VALID,353,VALID,0.719141,
2009-04-16, 02:51:04,VALID,1002.76,VALID,0,VALID,94.2014,VALID,0.100563,VALID,23.4877,VALID,346,VALID,0.482031,
2009-04-16, 02:52:04,VALID,1002.76,VALID,0,VALID,94.2014,VALID,0,VALID,23.5089,VALID,348,VALID,0.539063,
2009-04-16, 02:53:04,VALID,1002.75,VALID,0,VALID,94.2243,VALID,0.100563,VALID,23.4859,VALID,358,VALID,0.462109,
2009-04-16, 02:54:04,VALID,1002.72,VALID,0,VALID,94.2472,VALID,0.100563,VALID,23.5266,VALID,348,VALID,0.547656,
2009-04-16, 02:55:04,VALID,1002.73,VALID,0,VALID,94.2243,VALID,0.100563,VALID,23.546,VALID,345,VALID,0.207813,
2009-04-16, 02:56:04,VALID,1002.72,VALID,0,VALID,94.2243,VALID,0,VALID,23.5673,VALID,345,VALID,0.0878906,
2009-04-16, 02:57:04,VALID,1002.74,VALID,0,VALID,94.2167,VALID,0,VALID,23.5673,VALID,345,VALID,0.277344,
2009-04-16, 02:58:04,VALID,1002.74,VALID,0,VALID,94.209,VALID,0,VALID,23.5673,VALID,345,VALID,0.165234,
2009-04-16, 02:59:04,VALID,1002.73,VALID,0,VALID,94.1709,VALID,0,VALID,23.5868,VALID,345,VALID,0.177344,
2009-04-16, 03:00:04,VALID,1002.74,VALID,0,VALID,94.1785,VALID,0,VALID,23.5868,VALID,345,VALID,0.0570313,
2009-04-16, 03:01:04,VALID,1002.75,VALID,0,VALID,94.148,VALID,0,VALID,23.6062,VALID,345,VALID,0,
2009-04-16, 03:02:04,VALID,1002.72,VALID,0,VALID,94.1633,VALID,0,VALID,23.6257,VALID,345,VALID,0.202734,
2009-04-16, 03:03:04,VALID,1002.74,VALID,0,VALID,94.1633,VALID,0,VALID,23.6452,VALID,345,VALID,0,
2009-04-16, 03:04:04,VALID,1002.72,VALID,0,VALID,94.1709,VALID,0,VALID,23.6646,VALID,345,VALID,0,
2009-04-16, 03:05:04,VALID,1002.72,VALID,0,VALID,94.1709,VALID,0,VALID,23.6841,VALID,345,VALID,0,
2009-04-16, 03:06:04,VALID,1002.71,VALID,0,VALID,94.1251,VALID,0,VALID,23.6628,VALID,345,VALID,0.0164062,
2009-04-16, 03:07:04,VALID,1002.73,VALID,0,VALID,94.1175,VALID,0,VALID,23.6841,VALID,345,VALID,0.303125,
2009-04-16, 03:08:04,VALID,1002.73,VALID,0,VALID,94.1328,VALID,0,VALID,23.7035,VALID,345,VALID,0.367578,
2009-04-16, 03:09:04,VALID,1002.74,VALID,0,VALID,94.1175,VALID,0,VALID,23.7248,VALID,345,VALID,0.50625,
2009-04-16, 03:10:04,VALID,1002.74,VALID,0,VALID,94.1251,VALID,0,VALID,23.7035,VALID,345,VALID,0.349219,
2009-04-16, 03:11:04,VALID,1002.75,VALID,0,VALID,94.0717,VALID,0,VALID,23.7035,VALID,345,VALID,0.384766,
2009-04-16, 03:12:04,VALID,1002.77,VALID,0,VALID,94.0717,VALID,0,VALID,23.6841,VALID,345,VALID,0.478906,
2009-04-16, 03:13:04,VALID,1002.72,VALID,0,VALID,94.0488,VALID,0,VALID,23.6628,VALID,345,VALID,0.325391,
2009-04-16, 03:14:04,VALID,1002.74,VALID,0,VALID,94.0641,VALID,0,VALID,23.6646,VALID,345,VALID,0.275781,
2009-04-16, 03:15:04,VALID,1002.7,VALID,0,VALID,94.0717,VALID,0,VALID,23.6646,VALID,345,VALID,0.376172,
2009-04-16, 03:16:04,VALID,1002.71,VALID,0,VALID,94.0794,VALID,0,VALID,23.6646,VALID,345,VALID,0.362891,
2009-04-16, 03:17:04,VALID,1002.74,VALID,0,VALID,94.1251,VALID,0,VALID,23.6841,VALID,345,VALID,0.337109,
2009-04-16, 03:18:04,VALID,1002.74,VALID,0,VALID,94.0946,VALID,0,VALID,23.6823,VALID,345,VALID,0.274219,
2009-04-16, 03:19:04,VALID,1002.73,VALID,0,VALID,94.1175,VALID,0,VALID,23.7035,VALID,345,VALID,0,
2009-04-16, 03:20:04,VALID,1002.73,VALID,0,VALID,94.1175,VALID,0,VALID,23.723,VALID,345,VALID,0,
2009-04-16, 03:21:04,VALID,1002.74,VALID,0,VALID,94.1328,VALID,0,VALID,23.7017,VALID,345,VALID,0,
2009-04-16, 03:22:04,VALID,1002.78,VALID,0,VALID,94.1328,VALID,0,VALID,23.7425,VALID,345,VALID,0,
2009-04-16, 03:23:04,VALID,1002.79,VALID,0,VALID,94.1175,VALID,0,VALID,23.7017,VALID,345,VALID,0,
2009-04-16, 03:24:04,VALID,1002.8,VALID,0,VALID,94.1022,VALID,0,VALID,23.723,VALID,345,VALID,0,
2009-04-16, 03:25:04,VALID,1002.8,VALID,0,VALID,94.1556,VALID,0,VALID,23.7425,VALID,345,VALID,0,
2009-04-16, 03:26:04,VALID,1002.8,VALID,0,VALID,94.1862,VALID,0,VALID,23.7212,VALID,345,VALID,0,
2009-04-16, 03:27:04,VALID,1002.79,VALID,0,VALID,94.1938,VALID,0,VALID,23.7212,VALID,345,VALID,0,
2009-04-16, 03:28:04,VALID,1002.81,VALID,0,VALID,94.1556,VALID,0,VALID,23.723,VALID,345,VALID,0,
2009-04-16, 03:29:04,VALID,1002.83,VALID,0,VALID,94.1938,VALID,0,VALID,23.723,VALID,345,VALID,0,
2009-04-16, 03:30:04,VALID,1002.87,VALID,0,VALID,94.1862,VALID,0,VALID,23.7017,VALID,345,VALID,0,
2009-04-16, 03:31:04,VALID,1002.86,VALID,0,VALID,94.1785,VALID,0,VALID,23.7035,VALID,345,VALID,0,
2009-04-16, 03:32:04,VALID,1002.87,VALID,0,VALID,94.1785,VALID,0,VALID,23.7035,VALID,345,VALID,0.275,
2009-04-16, 03:33:04,VALID,1002.85,VALID,0,VALID,94.1938,VALID,0,VALID,23.6823,VALID,345,VALID,0.307813,
2009-04-16, 03:34:04,VALID,1002.86,VALID,0,VALID,94.2319,VALID,0,VALID,23.6823,VALID,345,VALID,0.451172,
2009-04-16, 03:35:04,VALID,1002.89,VALID,0,VALID,94.2624,VALID,0,VALID,23.723,VALID,345,VALID,0.366406,
2009-04-16, 03:36:04,VALID,1002.89,VALID,0,VALID,94.2777,VALID,0,VALID,23.7017,VALID,345,VALID,0.324609,
2009-04-16, 03:37:04,VALID,1002.93,VALID,0,VALID,94.293,VALID,0,VALID,23.7035,VALID,345,VALID,0.180078,
2009-04-16, 03:38:04,VALID,1002.93,VALID,0,VALID,94.293,VALID,0,VALID,23.7017,VALID,345,VALID,0.264844,
2009-04-16, 03:39:04,VALID,1002.96,VALID,0,VALID,94.3387,VALID,0,VALID,23.723,VALID,345,VALID,0.382813,
2009-04-16, 03:40:04,VALID,1002.99,VALID,0,VALID,94.3311,VALID,0,VALID,23.723,VALID,345,VALID,0.360156,
2009-04-16, 03:41:04,VALID,1002.99,VALID,0,VALID,94.3235,VALID,0,VALID,23.723,VALID,345,VALID,0.280469,
2009-04-16, 03:42:04,VALID,1003.03,VALID,0,VALID,94.3387,VALID,0,VALID,23.723,VALID,345,VALID,0.0570313,
2009-04-16, 03:43:04,VALID,1003.04,VALID,0,VALID,94.3387,VALID,0,VALID,23.723,VALID,345,VALID,0,